| time (UTC) | temp C | wind direction | speed KPH | gust KPH | rain 1hr cm | rain 24hr cm | rain mn cm | humidity % | barometer mb |
| 20260505220003 | 13 | 165 | 4.8 | 9.7 | 0.15 | 0.79 | 0.00 | 94 | 1002.9 |
| 20260505215003 | 13 | 143 | 4.8 | 12.9 | 0.20 | 0.76 | 0.76 | 93 | 1003.0 |
| 20260505214003 | 13 | 141 | 1.6 | 11.3 | 0.23 | 0.74 | 0.74 | 93 | 1003.0 |
| 20260505213218 | 13 | 104 | 0.0 | 4.8 | 0.25 | 0.71 | 0.71 | 94 | 1003.1 |
| 20260505212006 | 13 | 39 | 4.8 | 9.7 | 0.33 | 0.71 | 0.71 | 93 | 1003.1 |
| 20260505211218 | 13 | 51 | 6.4 | 11.3 | 0.38 | 0.69 | 0.69 | 93 | 1003.0 |
| 20260505210003 | 13 | 37 | 6.4 | 16.1 | 0.38 | 0.61 | 0.61 | 93 | 1003.0 |
| 20260505205003 | 13 | 16 | 4.8 | 16.1 | 0.38 | 0.56 | 0.56 | 93 | 1003.0 |
| 20260505204003 | 13 | 23 | 4.8 | 9.7 | 0.36 | 0.51 | 0.51 | 92 | 1003.1 |
| 20260505203003 | 14 | 347 | 3.2 | 12.9 | 0.33 | 0.43 | 0.43 | 92 | 1003.3 |
| 20260505202003 | 14 | 220 | 3.2 | 8.0 | 0.25 | 0.36 | 0.36 | 91 | 1003.7 |
| 20260505201006 | 14 | 149 | 3.2 | 11.3 | 0.20 | 0.28 | 0.28 | 91 | 1003.8 |
| 20260505200006 | 14 | 112 | 1.6 | 4.8 | 0.15 | 0.23 | 0.23 | 90 | 1003.8 |
| 20260505195218 | 14 | 325 | 3.2 | 4.8 | 0.13 | 0.20 | 0.20 | 90 | 1003.6 |
| 20260505194003 | 15 | 319 | 3.2 | 4.8 | 0.05 | 0.15 | 0.15 | 89 | 1003.4 |
| 20260505193003 | 15 | 340 | 1.6 | 4.8 | 0.05 | 0.13 | 0.13 | 89 | 1003.4 |
| 20260505192006 | 15 | 200 | 1.6 | 4.8 | 0.03 | 0.15 | 0.10 | 88 | 1003.6 |
| 20260505191008 | 15 | 11 | 3.2 | 8.0 | 0.00 | 0.15 | 0.08 | 87 | 1003.3 |
| 20260505190003 | 15 | 344 | 3.2 | 11.3 | 0.00 | 0.20 | 0.08 | 87 | 1002.9 |
| 20260505185003 | 15 | 356 | 3.2 | 11.3 | 0.00 | 0.23 | 0.08 | 86 | 1002.9 |
| 20260505184003 | 15 | 352 | 1.6 | 8.0 | 0.00 | 0.23 | 0.08 | 85 | 1002.9 |
| 20260505183003 | 15 | 356 | 1.6 | 8.0 | 0.00 | 0.23 | 0.08 | 84 | 1002.9 |
| 20260505182003 | 15 | 358 | 1.6 | 4.8 | 0.00 | 0.25 | 0.08 | 84 | 1003.0 |
| 20260505181003 | 15 | 13 | 3.2 | 12.9 | 0.00 | 0.25 | 0.08 | 83 | 1003.1 |
| 20260505180003 | 15 | 5 | 3.2 | 11.3 | 0.00 | 0.28 | 0.08 | 83 | 1003.2 |
| 20260505175003 | 15 | 360 | 4.8 | 17.7 | 0.00 | 0.28 | 0.08 | 82 | 1003.2 |
| 20260505174217 | 15 | 4 | 4.8 | 12.9 | 0.00 | 0.28 | 0.08 | 82 | 1003.3 |
| 20260505173006 | 16 | 8 | 6.4 | 14.5 | 0.00 | 0.33 | 0.08 | 83 | 1003.4 |
| 20260505172003 | 16 | 15 | 6.4 | 12.9 | 0.00 | 0.33 | 0.08 | 82 | 1003.4 |
| 20260505171003 | 16 | 13 | 4.8 | 14.5 | 0.00 | 0.33 | 0.08 | 81 | 1003.7 |
| 20260505170003 | 16 | 14 | 6.4 | 16.1 | 0.00 | 0.33 | 0.08 | 80 | 1003.7 |
| 20260505165003 | 16 | 6 | 4.8 | 14.5 | 0.00 | 0.33 | 0.08 | 80 | 1003.9 |
| 20260505164003 | 16 | 26 | 6.4 | 11.3 | 0.00 | 0.33 | 0.08 | 79 | 1004.0 |
| 20260505163216 | 17 | 27 | 6.4 | 12.9 | 0.00 | 0.33 | 0.08 | 79 | 1004.1 |
| 20260505162003 | 17 | 24 | 6.4 | 16.1 | 0.00 | 0.33 | 0.08 | 78 | 1004.0 |
| 20260505161216 | 17 | 32 | 6.4 | 14.5 | 0.00 | 0.33 | 0.08 | 78 | 1004.0 |
| 20260505153003 | 17 | 21 | 8.0 | 20.9 | 0.00 | 0.33 | 0.08 | 78 | 1004.1 |
| 20260505152006 | 17 | 23 | 8.0 | 16.1 | 0.00 | 0.33 | 0.08 | 78 | 1004.2 |
| 20260505151218 | 17 | 33 | 9.7 | 17.7 | 0.00 | 0.33 | 0.08 | 77 | 1004.2 |
| 20260505130221 | 18 | 50 | 6.4 | 14.5 | 0.00 | 0.33 | 0.08 | 79 | 1005.4 |
| 20260505125003 | 17 | 42 | 6.4 | 17.7 | 0.00 | 0.33 | 0.08 | 78 | 1005.5 |
| 20260505124217 | 17 | 35 | 6.4 | 14.5 | 0.00 | 0.33 | 0.08 | 79 | 1005.7 |
| 20260505123003 | 17 | 39 | 6.4 | 17.7 | 0.00 | 0.33 | 0.08 | 78 | 1005.8 |
| 20260505122003 | 17 | 38 | 6.4 | 14.5 | 0.00 | 0.33 | 0.08 | 80 | 1005.9 |
| 20260505121003 | 17 | 19 | 6.4 | 14.5 | 0.00 | 0.33 | 0.08 | 80 | 1006.0 |
| 20260505120217 | 17 | 32 | 8.0 | 14.5 | 0.00 | 0.33 | 0.08 | 80 | 1006.0 |
| 20260505115217 | 17 | 46 | 6.4 | 14.5 | 0.00 | 0.33 | 0.08 | 80 | 1006.1 |
| 20260505114003 | 16 | 73 | 4.8 | 14.5 | 0.00 | 0.33 | 0.08 | 81 | 1006.1 |
| 20260505113006 | 16 | 53 | 6.4 | 12.9 | 0.00 | 0.33 | 0.08 | 82 | 1006.2 |
| 20260505112003 | 16 | 51 | 4.8 | 12.9 | 0.00 | 0.33 | 0.08 | 85 | 1006.2 |
| 20260505111003 | 16 | 64 | 4.8 | 12.9 | 0.00 | 0.33 | 0.08 | 88 | 1006.3 |
| 20260505102003 | 14 | 23 | 3.2 | 6.4 | 0.00 | 0.33 | 0.08 | 94 | 1006.7 |
| 20260505101003 | 14 | 27 | 1.6 | 8.0 | 0.00 | 0.33 | 0.08 | 95 | 1006.8 |
| 20260505100003 | 14 | 0 | 0.0 | 4.8 | 0.00 | 0.33 | 0.08 | 95 | 1006.9 |
| 20260505095003 | 14 | 0 | 0.0 | 0.0 | 0.00 | 0.33 | 0.08 | 95 | 1007.0 |
| 20260505094006 | 13 | 0 | 0.0 | 0.0 | 0.00 | 0.33 | 0.08 | 95 | 1007.0 |
| 20260505093004 | 13 | 0 | 0.0 | 0.0 | 0.00 | 0.33 | 0.08 | 95 | 1007.1 |
| 20260505092003 | 13 | 0 | 0.0 | 0.0 | 0.00 | 0.33 | 0.08 | 95 | 1007.2 |
| 20260505091006 | 13 | 0 | 0.0 | 0.0 | 0.00 | 0.33 | 0.08 | 95 | 1007.2 |
| 20260505090003 | 13 | 0 | 0.0 | 0.0 | 0.00 | 0.33 | 0.08 | 95 | 1007.3 |
| 20260505085003 | 13 | 0 | 0.0 | 0.0 | 0.00 | 0.33 | 0.08 | 95 | 1007.4 |
| 20260505084003 | 13 | 0 | 0.0 | 0.0 | 0.00 | 0.33 | 0.08 | 95 | 1007.4 |
| 20260505083003 | 13 | 0 | 0.0 | 0.0 | 0.00 | 0.33 | 0.08 | 95 | 1007.4 |
| 20260505082006 | 13 | 75 | 1.6 | 3.2 | 0.00 | 0.33 | 0.08 | 95 | 1007.2 |
| 20260505081003 | 13 | 68 | 0.0 | 3.2 | 0.00 | 0.33 | 0.08 | 95 | 1007.2 |
| 20260505080003 | 13 | 0 | 0.0 | 3.2 | 0.00 | 0.33 | 0.08 | 95 | 1007.1 |
| 20260505075003 | 13 | 0 | 0.0 | 0.0 | 0.00 | 0.33 | 0.08 | 95 | 1007.1 |
| 20260505074003 | 13 | 0 | 0.0 | 0.0 | 0.00 | 0.33 | 0.08 | 95 | 1007.1 |
| 20260505073003 | 13 | 0 | 0.0 | 0.0 | 0.00 | 0.33 | 0.08 | 96 | 1007.0 |
| 20260505072003 | 13 | 0 | 0.0 | 0.0 | 0.00 | 0.33 | 0.08 | 96 | 1007.1 |
| 20260505071006 | 13 | 0 | 0.0 | 0.0 | 0.00 | 0.33 | 0.08 | 95 | 1007.1 |
| 20260505070003 | 13 | 292 | 1.6 | 6.4 | 0.00 | 0.33 | 0.08 | 95 | 1007.1 |
| 20260505065003 | 13 | 308 | 1.6 | 4.8 | 0.00 | 0.33 | 0.08 | 95 | 1007.2 |
| 20260505064006 | 13 | 289 | 1.6 | 4.8 | 0.00 | 0.33 | 0.08 | 95 | 1007.3 |
| 20260505063003 | 12 | 0 | 0.0 | 3.2 | 0.00 | 0.33 | 0.08 | 95 | 1007.2 |
| 20260505062003 | 12 | 0 | 0.0 | 1.6 | 0.03 | 0.33 | 0.08 | 95 | 1007.2 |
| 20260505061003 | 12 | 0 | 0.0 | 3.2 | 0.03 | 0.33 | 0.08 | 95 | 1007.1 |
| 20260505060003 | 12 | 0 | 0.0 | 0.0 | 0.03 | 0.33 | 0.08 | 95 | 1006.9 |
| 20260505055003 | 12 | 0 | 0.0 | 0.0 | 0.03 | 0.33 | 0.08 | 95 | 1007.0 |
| 20260505054216 | 12 | 0 | 0.0 | 0.0 | 0.03 | 0.33 | 0.08 | 95 | 1007.2 |
| 20260505053003 | 12 | 0 | 0.0 | 0.0 | 0.03 | 0.33 | 0.08 | 95 | 1007.5 |
| 20260505052003 | 12 | 0 | 0.0 | 0.0 | 0.00 | 0.33 | 0.05 | 95 | 1007.5 |
| 20260505051218 | 12 | 0 | 0.0 | 0.0 | 0.03 | 0.33 | 0.05 | 95 | 1007.6 |
| 20260505041006 | 12 | 0 | 0.0 | 0.0 | 0.00 | 0.30 | 0.05 | 94 | 1007.8 |
| 20260505040004 | 12 | 0 | 0.0 | 0.0 | 0.03 | 0.30 | 0.05 | 94 | 1007.9 |
| 20260505035218 | 12 | 0 | 0.0 | 0.0 | 0.03 | 0.30 | 0.05 | 94 | 1007.9 |
| 20260505034218 | 12 | 0 | 0.0 | 0.0 | 0.03 | 0.30 | 0.05 | 94 | 1008.0 |
| 20260505033003 | 12 | 0 | 0.0 | 0.0 | 0.03 | 0.30 | 0.05 | 94 | 1008.2 |
| 20260505032006 | 12 | 0 | 0.0 | 0.0 | 0.03 | 0.30 | 0.05 | 94 | 1008.2 |
| 20260505031003 | 12 | 0 | 0.0 | 0.0 | 0.03 | 0.30 | 0.05 | 94 | 1008.3 |
| 20260505030003 | 12 | 0 | 0.0 | 0.0 | 0.00 | 0.28 | 0.03 | 94 | 1008.3 |
| 20260505025004 | 12 | 0 | 0.0 | 0.0 | 0.00 | 0.28 | 0.03 | 94 | 1008.4 |
| 20260505024217 | 12 | 0 | 0.0 | 0.0 | 0.00 | 0.28 | 0.03 | 94 | 1008.5 |
| 20260505023003 | 12 | 0 | 0.0 | 0.0 | 0.00 | 0.28 | 0.03 | 94 | 1008.4 |
| 20260505022003 | 12 | 0 | 0.0 | 1.6 | 0.00 | 0.28 | 0.03 | 94 | 1008.5 |
| 20260505021003 | 12 | 295 | 1.6 | 3.2 | 0.00 | 0.28 | 0.03 | 94 | 1008.5 |
| 20260505020217 | 12 | 289 | 0.0 | 6.4 | 0.00 | 0.28 | 0.03 | 94 | 1008.5 |
| 20260505015003 | 12 | 0 | 0.0 | 0.0 | 0.00 | 0.28 | 0.03 | 94 | 1008.4 |
| 20260505014003 | 12 | 0 | 0.0 | 0.0 | 0.03 | 0.28 | 0.03 | 94 | 1008.3 |
| 20260505013217 | 12 | 0 | 0.0 | 0.0 | 0.03 | 0.28 | 0.03 | 94 | 1008.4 |
| 20260505012007 | 12 | 0 | 0.0 | 0.0 | 0.03 | 0.28 | 0.03 | 94 | 1008.4 |
| 20260505011003 | 12 | 313 | 1.6 | 4.8 | 0.03 | 0.28 | 0.03 | 94 | 1008.5 |
| 20260505010003 | 12 | 343 | 0.0 | 3.2 | 0.03 | 0.28 | 0.03 | 94 | 1008.6 |
| 20260505005004 | 12 | 0 | 0.0 | 3.2 | 0.03 | 0.28 | 0.03 | 94 | 1008.8 |
| 20260505004003 | 12 | 343 | 0.0 | 1.6 | 0.00 | 0.25 | 0.00 | 94 | 1008.9 |
| 20260505003216 | 12 | 343 | 0.0 | 3.2 | 0.00 | 0.25 | 0.00 | 94 | 1009.0 |
| 20260505002003 | 12 | 19 | 1.6 | 3.2 | 0.00 | 0.25 | 0.00 | 93 | 1009.2 |
| 20260505001006 | 12 | 332 | 3.2 | 6.4 | 0.00 | 0.25 | 0.00 | 93 | 1009.2 |
| 20260505000003 | 12 | 248 | 0.0 | 6.4 | 0.00 | 0.25 | 0.00 | 93 | 1009.2 |
| 20260504235003 | 12 | 0 | 0.0 | 0.0 | 0.00 | 0.25 | 0.00 | 93 | 1009.3 |
| 20260504234003 | 12 | 292 | 1.6 | 3.2 | 0.00 | 0.25 | 0.00 | 93 | 1009.4 |
| 20260504233003 | 12 | 290 | 0.0 | 4.8 | 0.00 | 0.25 | 0.00 | 93 | 1009.5 |
| 20260504232003 | 12 | 0 | 0.0 | 0.0 | 0.00 | 0.25 | 0.00 | 93 | 1009.5 |
| 20260504231003 | 13 | 0 | 0.0 | 1.6 | 0.00 | 0.25 | 0.00 | 92 | 1009.6 |
| 20260504230003 | 13 | 308 | 1.6 | 1.6 | 0.00 | 0.25 | 0.00 | 92 | 1009.6 |
| 20260504225003 | 13 | 0 | 0.0 | 4.8 | 0.00 | 0.25 | 0.00 | 92 | 1009.6 |
| 20260504224003 | 13 | 0 | 0.0 | 0.0 | 0.00 | 0.25 | 0.00 | 92 | 1009.7 |
| 20260504223003 | 13 | 0 | 0.0 | 0.0 | 0.00 | 0.25 | 0.00 | 92 | 1009.8 |
| 20260504222003 | 13 | 0 | 0.0 | 3.2 | 0.00 | 0.25 | 0.00 | 92 | 1009.8 |
| 20260504221003 | 13 | 0 | 0.0 | 0.0 | 0.00 | 0.25 | 0.00 | 92 | 1009.7 |